EW6470 Weather Reports


Display with metric or nautical units.
time (UTC)temp
F
wind
direction
speed
MPH
gust
MPH
rain 1hr
in
rain 24hr
in
rain mn
in
humidity
%
barometer
mb
20260509224533 50 78 1.0 9.0 0.00 0.05 0.04 66 992.6
20260509224011 50 114 3.0 9.0 0.00 0.05 0.04 66 992.6
20260509223510 50 88 2.0 7.0 0.00 0.05 0.04 67 992.5
20260509223031 50 74 2.0 7.0 0.00 0.05 0.04 67 992.6
20260509222509 50 108 1.0 7.0 0.00 0.05 0.04 69 992.5
20260509222057 50 122 3.0 7.0 0.00 0.05 0.04 68 992.5
20260509221533 49 121 2.0 7.0 0.00 0.05 0.04 70 992.4
20260509221012 49 144 2.0 11.0 0.00 0.05 0.04 70 992.5
20260509220510 49 82 1.0 11.0 0.00 0.05 0.04 71 992.5
20260509220029 49 111 2.0 11.0 0.00 0.05 0.04 72 992.5
20260509215513 49 82 2.0 6.0 0.00 0.05 0.04 72 992.5
20260509215012 49 135 1.0 4.0 0.00 0.05 0.04 73 992.5
20260509214529 49 119 2.0 6.0 0.00 0.05 0.04 72 992.5
20260509214014 49 154 2.0 6.0 0.00 0.05 0.04 72 992.6
20260509213509 49 86 1.0 8.0 0.00 0.05 0.04 74 992.5
20260509213028 48 112 1.0 8.0 0.00 0.05 0.04 74 992.6
20260509212511 48 139 1.0 7.0 0.00 0.05 0.04 74 992.5
20260509212014 48 146 2.0 7.0 0.00 0.05 0.04 74 992.5
20260509211527 48 348 1.0 4.0 0.00 0.05 0.04 75 992.5
20260509211010 48 114 1.0 4.0 0.00 0.05 0.04 77 992.5
20260509210509 47 89 1.0 5.0 0.00 0.05 0.04 76 992.4
20260509210033 47 76 2.0 5.0 0.00 0.05 0.04 76 992.4
20260509205508 47 121 1.0 7.0 0.00 0.05 0.04 77 992.5
20260509205010 47 0 1.0 7.0 0.00 0.05 0.04 77 992.6
20260509204531 46 68 1.0 4.0 0.00 0.05 0.04 78 992.4
20260509204010 46 111 2.0 8.0 0.00 0.05 0.04 78 992.5
20260509203511 46 47 1.0 9.0 0.00 0.05 0.04 80 992.5
20260509203038 46 150 2.0 9.0 0.00 0.05 0.04 79 992.5
20260509202508 45 74 1.0 4.0 0.00 0.05 0.04 80 992.5
20260509202010 45 101 1.0 5.0 0.00 0.05 0.04 80 992.6
20260509201530 45 83 1.0 6.0 0.00 0.05 0.04 80 992.4
20260509201013 45 142 2.0 6.0 0.00 0.05 0.04 80 992.5
20260509200511 45 136 3.0 6.0 0.00 0.05 0.04 79 992.5
20260509200030 45 130 1.0 4.0 0.00 0.05 0.04 80 992.6
20260509195510 45 120 1.0 5.0 0.00 0.05 0.04 80 992.4
20260509195011 45 142 2.0 5.0 0.00 0.05 0.04 82 992.4
20260509194530 45 69 0.0 4.0 0.00 0.05 0.04 83 992.4
20260509194012 44 178 2.0 4.0 0.00 0.05 0.04 83 992.5
20260509193513 44 163 1.0 4.0 0.00 0.05 0.04 84 992.4
20260509193034 44 165 1.0 4.0 0.00 0.05 0.04 85 992.5
20260509192512 44 153 1.0 4.0 0.00 0.05 0.04 85 992.4
20260509192012 43 139 2.0 4.0 0.00 0.05 0.04 86 992.5
20260509191528 43 86 0.0 2.0 0.00 0.05 0.04 87 992.3
20260509191011 43 76 1.0 2.0 0.00 0.05 0.04 88 992.3
20260509190511 42 159 0.0 1.0 0.00 0.05 0.04 90 992.3
20260509190030 42 58 0.0 1.0 0.00 0.05 0.04 90 992.3
20260509185508 41 0 0.0 0.0 0.00 0.05 0.04 90 992.3
20260509185008 41 0 0.0 1.0 0.00 0.05 0.04 90 992.4
20260509184533 40 0 0.0 1.0 0.00 0.05 0.04 90 992.4
20260509184009 40 0 0.0 1.0 0.00 0.05 0.04 91 992.5
20260509183510 40 0 0.0 1.0 0.00 0.05 0.04 91 992.5
20260509183031 40 22 0.0 1.0 0.00 0.05 0.04 92 992.5
20260509182512 40 0 0.0 1.0 0.00 0.05 0.04 92 992.5
20260509182009 40 0 0.0 1.0 0.00 0.05 0.04 92 992.5
20260509181527 39 136 0.0 1.0 0.00 0.05 0.04 92 992.5
20260509181010 39 0 0.0 1.0 0.00 0.05 0.04 92 992.5
20260509180509 39 0 0.0 1.0 0.00 0.05 0.04 93 992.5
20260509180028 39 0 0.0 1.0 0.00 0.05 0.04 93 992.5
20260509175509 39 136 0.0 1.0 0.00 0.05 0.04 93 992.5
20260509175008 39 136 0.0 1.0 0.00 0.05 0.04 93 992.6
20260509174528 39 0 0.0 1.0 0.00 0.05 0.04 94 992.5
20260509174010 38 0 0.0 1.0 0.00 0.05 0.04 94 992.5
20260509173509 38 0 0.0 1.0 0.00 0.05 0.04 94 992.6
20260509173028 38 134 0.0 1.0 0.00 0.05 0.04 94 992.5
20260509172509 38 0 0.0 2.0 0.00 0.05 0.04 94 992.7
20260509172010 38 134 0.0 2.0 0.00 0.05 0.04 94 992.8
20260509171530 38 136 0.0 2.0 0.00 0.05 0.04 95 992.8
20260509171016 38 0 0.0 1.0 0.00 0.05 0.04 95 993.0
20260509170510 38 87 0.0 1.0 0.00 0.05 0.04 95 992.9
20260509170037 37 0 0.0 1.0 0.00 0.05 0.04 95 992.8
20260509165509 37 0 0.0 1.0 0.00 0.05 0.04 95 992.8
20260509165011 37 73 0.0 1.0 0.00 0.05 0.04 95 992.9
20260509164536 37 0 0.0 1.0 0.00 0.05 0.04 95 992.9
20260509164016 37 73 0.0 1.0 0.00 0.05 0.04 95 993.0
20260509163508 37 0 0.0 1.0 0.00 0.05 0.04 95 993.1
20260509163032 37 0 0.0 1.0 0.00 0.05 0.04 95 993.1
20260509162510 37 153 0.0 1.0 0.00 0.05 0.04 95 993.1
20260509162015 37 296 0.0 1.0 0.00 0.05 0.04 95 993.1
20260509161534 37 0 0.0 0.0 0.00 0.05 0.04 95 993.2
20260509161011 36 0 0.0 0.0 0.00 0.05 0.04 95 993.1
20260509160509 36 0 0.0 1.0 0.00 0.05 0.04 95 993.2
20260509160036 36 0 0.0 1.0 0.00 0.05 0.04 95 993.2
20260509155510 36 0 0.0 0.0 0.00 0.05 0.04 95 993.2
20260509155008 36 296 0.0 0.0 0.00 0.05 0.04 95 993.2
20260509154532 36 0 0.0 0.0 0.00 0.05 0.04 95 993.0
20260509154010 36 0 0.0 1.0 0.00 0.05 0.04 95 993.1
20260509153512 36 0 0.0 1.0 0.00 0.05 0.04 95 993.2
20260509153037 36 0 0.0 0.0 0.00 0.05 0.04 95 993.0
20260509152509 36 0 0.0 0.0 0.00 0.05 0.04 95 993.2
20260509152009 36 0 0.0 0.0 0.00 0.05 0.04 95 993.3
20260509151530 36 0 0.0 0.0 0.00 0.05 0.04 95 993.3
20260509151011 36 0 0.0 0.0 0.00 0.05 0.04 95 993.3
20260509150509 36 0 0.0 0.0 0.00 0.05 0.04 95 993.3
20260509150031 36 0 0.0 0.0 0.00 0.05 0.04 95 993.3
20260509145510 35 0 0.0 0.0 0.00 0.05 0.04 95 993.3
20260509145010 35 0 0.0 0.0 0.00 0.05 0.04 95 993.3
20260509144533 35 0 0.0 0.0 0.00 0.05 0.04 95 993.3
20260509144010 35 0 0.0 0.0 0.00 0.05 0.04 95 993.4
20260509143508 35 0 0.0 0.0 0.00 0.05 0.04 95 993.4
20260509143031 35 0 0.0 0.0 0.00 0.05 0.04 95 993.3
20260509142509 36 0 0.0 0.0 0.00 0.05 0.04 95 993.6
20260509142009 36 0 0.0 0.0 0.00 0.05 0.04 95 993.6
20260509141529 36 0 0.0 0.0 0.00 0.05 0.04 95 993.7
20260509141008 36 0 0.0 0.0 0.00 0.05 0.04 95 993.6
20260509140509 36 0 0.0 0.0 0.00 0.05 0.04 95 993.7
20260509140032 36 0 0.0 0.0 0.00 0.05 0.04 95 993.8
20260509135513 36 0 0.0 0.0 0.00 0.05 0.04 95 993.9
20260509135009 36 0 0.0 0.0 0.00 0.05 0.04 95 994.0
20260509134530 36 0 0.0 0.0 0.01 0.05 0.04 95 994.0
20260509134013 36 0 0.0 0.0 0.01 0.05 0.04 95 994.1
20260509133510 36 0 0.0 0.0 0.01 0.05 0.04 95 994.1
20260509133030 36 0 0.0 0.0 0.01 0.05 0.04 95 994.1
20260509132509 36 0 0.0 0.0 0.01 0.05 0.04 95 994.2
20260509132016 36 0 0.0 0.0 0.01 0.05 0.04 95 994.2
20260509131534 36 0 0.0 0.0 0.01 0.05 0.04 95 994.3
20260509131013 36 0 0.0 0.0 0.01 0.05 0.04 95 994.5
20260509130509 36 0 0.0 0.0 0.01 0.05 0.04 95 994.4
20260509130029 36 0 0.0 0.0 0.01 0.05 0.04 95 994.5
20260509125512 36 0 0.0 0.0 0.01 0.05 0.04 95 994.7
20260509125012 36 0 0.0 0.0 0.01 0.05 0.04 95 994.7
20260509124530 36 0 0.0 0.0 0.00 0.04 0.03 95 994.9
20260509124010 36 0 0.0 0.0 0.00 0.04 0.03 95 994.8
20260509123510 36 0 0.0 0.0 0.00 0.04 0.03 95 994.9
20260509123027 36 0 0.0 0.0 0.00 0.04 0.03 95 995.1
20260509122510 36 0 0.0 0.0 0.00 0.04 0.03 95 995.2
20260509122007 36 0 0.0 0.0 0.00 0.04 0.03 95 995.3
20260509121531 36 296 0.0 0.0 0.00 0.04 0.03 95 995.4
20260509121012 36 0 0.0 0.0 0.00 0.04 0.03 95 995.5
20260509120509 36 0 0.0 0.0 0.00 0.04 0.03 95 995.4
20260509120036 36 0 0.0 0.0 0.00 0.04 0.03 95 995.5
20260509115509 36 0 0.0 0.0 0.00 0.04 0.03 95 995.6
20260509115009 36 0 0.0 0.0 0.00 0.04 0.03 95 995.7
20260509114533 36 0 0.0 0.0 0.01 0.04 0.03 95 995.7
20260509114010 36 0 0.0 0.0 0.01 0.04 0.03 95 995.8
20260509113509 36 0 0.0 0.0 0.01 0.04 0.03 94 995.9
20260509113028 36 0 0.0 0.0 0.01 0.04 0.03 94 996.0
20260509112510 36 0 0.0 0.0 0.01 0.04 0.03 94 996.1
20260509112009 36 0 0.0 0.0 0.01 0.04 0.03 94 996.1
20260509111529 36 0 0.0 0.0 0.01 0.04 0.03 94 996.2
20260509111009 36 0 0.0 0.0 0.01 0.04 0.03 94 996.3
20260509110510 36 0 0.0 0.0 0.01 0.04 0.03 94 996.4
20260509110029 36 0 0.0 0.0 0.01 0.04 0.03 94 996.5
20260509105508 36 0 0.0 0.0 0.01 0.04 0.03 94 996.5
20260509105009 36 0 0.0 0.0 0.01 0.04 0.03 94 996.6
20260509104526 36 0 0.0 0.0 0.00 0.03 0.02 94 996.7
20260509104009 36 0 0.0 0.0 0.00 0.03 0.02 94 996.9
20260509103509 36 0 0.0 0.0 0.00 0.03 0.02 94 996.9
20260509103029 37 0 0.0 0.0 0.00 0.03 0.02 94 996.9
20260509102507 37 0 0.0 0.0 0.00 0.03 0.02 94 996.9
20260509102010 37 0 0.0 0.0 0.00 0.03 0.02 94 997.0
20260509101537 37 0 0.0 0.0 0.00 0.03 0.02 94 997.1
20260509101012 37 0 0.0 0.0 0.01 0.03 0.02 94 997.1
20260509100511 37 0 0.0 0.0 0.01 0.03 0.02 94 997.2
20260509100027 37 0 0.0 0.0 0.01 0.03 0.02 94 997.2
20260509095509 37 0 0.0 0.0 0.01 0.03 0.02 94 997.2
20260509095008 37 0 0.0 0.0 0.01 0.03 0.02 94 997.4
20260509094529 37 0 0.0 0.0 0.01 0.03 0.02 94 997.4
20260509094010 37 0 0.0 0.0 0.01 0.03 0.02 94 997.6
20260509093513 37 0 0.0 0.0 0.01 0.03 0.02 94 997.6
20260509093027 37 0 0.0 0.0 0.01 0.03 0.02 94 997.7
20260509092508 37 0 0.0 0.0 0.01 0.03 0.02 94 997.7
20260509092009 37 0 0.0 0.0 0.01 0.03 0.02 94 998.0
20260509091533 37 0 0.0 0.0 0.01 0.03 0.02 94 998.1
20260509091011 37 0 0.0 0.0 0.00 0.02 0.01 94 998.0
20260509090510 37 0 0.0 0.0 0.01 0.02 0.01 94 998.2
20260509090028 38 0 0.0 1.0 0.01 0.02 0.01 94 998.1
20260509085512 38 0 0.0 1.0 0.01 0.02 0.01 94 998.3
20260509085008 38 296 0.0 0.0 0.01 0.02 0.01 94 998.4
20260509084533 38 0 0.0 0.0 0.01 0.02 0.01 93 998.5
20260509084014 38 0 0.0 0.0 0.01 0.02 0.01 93 998.6
20260509083511 38 0 0.0 0.0 0.01 0.02 0.01 93 998.6
20260509083029 38 0 0.0 0.0 0.01 0.02 0.01 93 998.6
20260509082509 38 0 0.0 0.0 0.01 0.02 0.01 93 998.6
20260509082013 38 0 0.0 0.0 0.01 0.02 0.01 93 998.8
20260509081528 38 0 0.0 0.0 0.01 0.02 0.01 93 998.8
20260509081014 38 0 0.0 0.0 0.01 0.02 0.01 93 998.9
20260509080512 38 0 0.0 0.0 0.00 0.01 0.00 93 998.9
20260509080033 38 0 0.0 0.0 0.00 0.01 0.00 92 999.0
20260509075511 38 0 0.0 0.0 0.00 0.01 0.01 92 999.0
20260509075010 38 0 0.0 0.0 0.01 0.01 0.01 92 999.1
20260509074529 38 0 0.0 0.0 0.01 0.01 0.01 92 999.1
20260509074010 38 0 0.0 0.0 0.01 0.01 0.01 92 999.3
20260509073514 39 0 0.0 0.0 0.01 0.01 0.01 91 999.3
20260509073045 39 0 0.0 0.0 0.01 0.01 0.01 91 999.4
20260509072513 39 0 0.0 0.0 0.01 0.01 0.01 91 999.4
20260509072014 39 0 0.0 0.0 0.01 0.01 0.01 90 999.4
20260509071535 39 0 0.0 0.0 0.01 0.01 0.01 90 999.6
20260509071008 39 0 0.0 1.0 0.01 0.01 0.01 89 999.6
20260509070508 39 0 0.0 1.0 0.01 0.01 0.01 89 999.6
20260509070029 40 0 0.0 1.0 0.01 0.01 0.01 88 999.6
20260509065509 40 0 0.0 1.0 0.01 0.01 0.01 87 999.7
20260509065006 40 295 0.0 1.0 0.00 0.00 0.00 86 999.7
20260509064528 40 0 0.0 0.0 0.00 0.00 0.00 84 999.6
20260509064010 41 0 0.0 1.0 0.00 0.00 0.00 84 999.8
20260509063509 41 0 0.0 1.0 0.00 0.00 0.00 84 999.8
20260509063031 41 295 0.0 1.0 0.00 0.00 0.00 82 999.8
20260509062510 41 0 0.0 1.0 0.00 0.00 0.00 81 999.8
20260509062010 41 0 0.0 0.0 0.00 0.00 0.00 80 999.7
20260509061530 42 0 0.0 0.0 0.00 0.00 0.00 79 999.7
20260509061010 42 0 0.0 0.0 0.00 0.00 0.00 78 999.9
20260509060509 42 0 0.0 0.0 0.00 0.00 0.00 77 999.9
20260509060040 42 0 0.0 0.0 0.00 0.00 0.00 76 999.9
20260509055511 42 0 0.0 1.0 0.00 0.00 0.00 76 1000.0
20260509055008 42 0 0.0 1.0 0.00 0.00 0.00 74 999.8
20260509054528 42 0 0.0 1.0 0.00 0.00 0.00 73 999.8
20260509054009 42 0 0.0 1.0 0.00 0.00 0.00 75 999.9
20260509053510 42 0 0.0 2.0 0.00 0.00 0.00 76 999.9
20260509053033 42 269 0.0 2.0 0.00 0.00 0.00 76 999.8
20260509052508 42 275 1.0 3.0 0.00 0.00 0.00 76 999.9
20260509052009 43 286 1.0 3.0 0.00 0.00 0.00 75 1000.0
20260509051529 43 267 1.0 3.0 0.00 0.00 0.00 74 1000.1
20260509051010 43 267 1.0 2.0 0.00 0.00 0.00 73 1000.1
20260509050510 43 262 0.0 3.0 0.00 0.00 0.00 72 1000.2
20260509050031 43 243 0.0 3.0 0.00 0.00 0.00 72 1000.2
20260509045511 43 172 1.0 3.0 0.00 0.00 0.00 71 1000.2
20260509045013 44 281 1.0 2.0 0.00 0.00 0.00 71 1000.1
20260509044536 44 246 1.0 2.0 0.00 0.00 0.00 70 1000.3
20260509044009 44 294 1.0 2.0 0.00 0.00 0.00 70 1000.2
20260509043510 44 275 0.0 3.0 0.00 0.00 0.00 70 1000.2
20260509043034 44 250 1.0 3.0 0.00 0.00 0.00 69 1000.2
20260509042510 44 267 1.0 3.0 0.00 0.00 0.00 70 1000.3
20260509042013 44 274 0.0 4.0 0.00 0.00 0.00 72 1000.3
20260509041528 44 280 1.0 4.0 0.00 0.00 0.00 71 1000.4
20260509041009 43 252 1.0 4.0 0.00 0.00 0.00 72 1000.5
20260509040511 43 265 2.0 4.0 0.00 0.00 0.00 72 1000.5
20260509040029 44 284 1.0 2.0 0.00 0.00 0.00 72 1000.6
20260509035511 44 281 0.0 3.0 0.00 0.00 0.00 72 1000.5
20260509035012 44 0 1.0 3.0 0.00 0.00 0.00 72 1000.6
20260509034541 44 284 1.0 3.0 0.00 0.00 0.00 71 1000.7
20260509034011 44 0 0.0 1.0 0.00 0.00 0.00 72 1000.6
20260509033510 44 317 0.0 1.0 0.00 0.00 0.00 72 1000.7
20260509033031 44 262 0.0 1.0 0.00 0.00 0.00 72 1000.8
20260509032510 44 14 0.0 2.0 0.00 0.00 0.00 73 1000.9
20260509032014 44 251 0.0 2.0 0.00 0.00 0.00 71 1000.9
20260509031532 45 0 0.0 2.0 0.00 0.00 0.00 71 1001.0
20260509031010 45 337 0.0 2.0 0.00 0.00 0.00 70 1001.0
20260509030510 45 336 0.0 2.0 0.00 0.00 0.00 70 1001.1
20260509030030 45 0 0.0 2.0 0.00 0.00 0.00 69 1001.2
20260509025510 45 17 0.0 2.0 0.00 0.00 0.00 67 1001.2
20260509025010 45 352 0.0 3.0 0.00 0.00 0.00 68 1001.2
20260509024527 45 298 0.0 3.0 0.00 0.00 0.00 67 1001.3
20260509024012 45 306 0.0 3.0 0.00 0.00 0.00 67 1001.3
20260509023510 45 55 1.0 4.0 0.00 0.00 0.00 67 1001.4
20260509023028 45 348 1.0 4.0 0.00 0.00 0.00 67 1001.3
20260509022509 45 0 0.0 3.0 0.00 0.00 0.00 68 1001.5
20260509022011 45 36 1.0 3.0 0.00 0.00 0.00 67 1001.5
20260509021535 45 279 1.0 3.0 0.00 0.00 0.00 65 1001.5
20260509021009 45 294 1.0 3.0 0.00 0.00 0.00 63 1001.7
20260509020509 45 284 1.0 3.0 0.00 0.00 0.00 61 1001.7
20260509020033 45 270 0.0 4.0 0.00 0.00 0.00 62 1001.8
20260509015512 45 279 2.0 4.0 0.00 0.00 0.00 61 1001.9
20260509015010 45 290 1.0 5.0 0.00 0.00 0.00 62 1002.1
20260509014529 45 272 1.0 5.0 0.00 0.00 0.00 63 1002.1
20260509014009 45 248 2.0 6.0 0.00 0.00 0.00 63 1002.2
20260509013508 46 304 1.0 6.0 0.00 0.00 0.00 64 1002.3
20260509013032 46 22 0.0 3.0 0.00 0.00 0.00 62 1002.3
20260509012512 46 275 1.0 7.0 0.00 0.00 0.00 59 1002.2
20260509012010 46 305 2.0 7.0 0.00 0.00 0.00 61 1002.3
20260509011539 47 267 2.0 6.0 0.00 0.00 0.00 61 1002.2
20260509011011 47 238 3.0 6.0 0.00 0.00 0.00 60 1002.5
20260509010509 47 232 2.0 7.0 0.00 0.00 0.00 58 1002.5
20260509010035 48 219 2.0 7.0 0.00 0.00 0.00 56 1002.4
20260509005510 48 291 1.0 5.0 0.00 0.00 0.00 55 1002.5
20260509005010 48 175 2.0 5.0 0.00 0.00 0.00 53 1002.5
20260509004540 48 268 1.0 3.0 0.00 0.00 0.00 53 1002.8
20260509004010 48 273 1.0 4.0 0.00 0.00 0.00 53 1002.7
20260509003510 48 149 1.0 4.0 0.00 0.00 0.00 52 1002.7
20260509003031 48 270 1.0 4.0 0.00 0.00 0.00 53 1002.8
20260509002510 48 0 0.0 4.0 0.00 0.00 0.00 52 1002.9
20260509002012 48 278 1.0 4.0 0.00 0.00 0.00 53 1003.1
20260509001528 48 283 2.0 4.0 0.00 0.00 0.00 51 1003.2
20260509001010 48 291 0.0 5.0 0.00 0.00 0.00 53 1003.2
20260509000512 48 261 1.0 5.0 0.00 0.00 0.00 53 1003.3
20260509000027 48 179 2.0 5.0 0.00 0.00 0.00 53 1003.4
20260508235514 48 249 1.0 3.0 0.00 0.00 0.00 52 1003.3
20260508235010 48 0 0.0 5.0 0.00 0.00 0.00 52 1003.4
20260508234531 48 164 1.0 5.0 0.00 0.00 0.00 52 1003.6
20260508234011 48 208 1.0 3.0 0.00 0.00 0.00 53 1003.4
20260508233512 48 276 1.0 2.0 0.00 0.00 0.00 50 1003.5
20260508233032 48 268 0.0 3.0 0.00 0.00 0.00 50 1003.6
20260508232510 48 134 1.0 3.0 0.00 0.00 0.00 51 1003.7
20260508232010 48 153 1.0 3.0 0.00 0.00 0.00 50 1003.7
20260508231530 48 165 1.0 2.0 0.00 0.00 0.00 51 1003.8
20260508231008 48 279 0.0 3.0 0.00 0.00 0.00 50 1003.8
20260508230508 48 0 1.0 7.0 0.00 0.00 0.00 50 1003.9
20260508230030 48 234 2.0 7.0 0.00 0.00 0.00 50 1004.0
20260508225513 48 244 2.0 6.0 0.00 0.00 0.00 50 1004.0
20260508225027 49 258 1.0 6.0 0.00 0.00 0.00 51 1004.1